This is the latest recevied weather packets stored in our database for station/object WZ8H. If no packets are shown the sender has not sent any weather packets the latest 10 day(s).
| Time | Temp. | Humidity | Pressure | Rain* | Wind** | Luminosity | Snow |
|---|---|---|---|---|---|---|---|
| 1778001508 | 16.11° C | 81% | 1006.6 hPa | 0 mm | - | 44 W/m² | - |
| 1778001186 | 16.11° C | 80% | 1006.5 hPa | 0 mm | - | 56 W/m² | - |
| 1778000885 | 16.11° C | 80% | 1006.4 hPa | 0 mm | - | 54 W/m² | - |
| 1778000561 | 16.11° C | 80% | 1006.5 hPa | 0 mm | - | 47 W/m² | - |
| 1778000239 | 16.11° C | 79% | 1006.4 hPa | 0 mm | - | 54 W/m² | - |
| 1777999914 | 16.11° C | 80% | 1006.4 hPa | 0 mm | - | 42 W/m² | - |
| 1777999590 | 16.67° C | 80% | 1006.4 hPa | 0 mm | - | 44 W/m² | - |
| 1777999270 | 16.67° C | 80% | 1006.3 hPa | 0 mm | - | 62 W/m² | - |
| 1777998969 | 16.67° C | 80% | 1006.4 hPa | 0 mm | - | 63 W/m² | - |
| 1777998655 | 16.67° C | 79% | 1006.3 hPa | 0 mm | - | 81 W/m² | - |
| 1777998350 | 16.67° C | 79% | 1006.3 hPa | 0 mm | - | 127 W/m² | - |
| 1777998053 | 16.67° C | 79% | 1006.3 hPa | 0 mm | - | 311 W/m² | - |
| 1777997751 | 16.67° C | 78% | 1006.4 hPa | 0 mm | - | 230 W/m² | - |
| 1777997457 | 16.67° C | 79% | 1006.3 hPa | 0 mm | - | 188 W/m² | - |
| 1777997132 | 17.22° C | 79% | 1006.3 hPa | 0 mm | - | 206 W/m² | - |
| 1777996811 | 17.22° C | 79% | 1006.3 hPa | 0 mm | - | 197 W/m² | - |
| 1777996507 | 17.22° C | 79% | 1006.1 hPa | 0 mm | - | 265 W/m² | - |
| 1777996194 | 17.22° C | 78% | 1006.2 hPa | 0 mm | - | 199 W/m² | - |
| 1777995874 | 17.22° C | 78% | 1006.3 hPa | 0 mm | - | 206 W/m² | - |
| 1777995551 | 17.22° C | 78% | 1006.3 hPa | 0 mm | - | 149 W/m² | - |
| 1777995215 | 17.22° C | 78% | 1006.3 hPa | 0 mm | - | 155 W/m² | - |
| 1777994893 | 17.22° C | 78% | 1006.2 hPa | 0 mm | - | 176 W/m² | - |
| 1777994594 | 17.22° C | 77% | 1006.1 hPa | 0 mm | - | 190 W/m² | - |
| 1777994289 | 17.78° C | 77% | 1006 hPa | 0 mm | - | 190 W/m² | - |
| 1777993979 | 17.78° C | 77% | 1005.8 hPa | 0 mm | - | 188 W/m² | - |
* Rain latest hour (hover to see other rain measurements)
** Current wind speed in m/s (hover to see current wind gust speed)